Date String (YYYY-MM-DD hh:mm:ss) UTC,Instrument flags,Ambient pressure (hPa),Sample flow (lpm),Bypass flow (lpm),Sample temperature (°C),Ambient temperature (°C),ASC tube jacket temperature (°C),LED temperature (°C),Box temperature (°C),Sample RH (%),Span deviation,Mass concentration (μg/m³),Mass concentration (μg/m³),Mass concentration (μg/m³)
DateTimeUTC,F1_M11,P_M11,Q1_M11,Q2_M11,T1_M11,T2_M11,T3_M11,T4_M11,T5_M11,U1_M11,ZSPAN_M11,X0_M11,X2_M11,X1_M11
2022-05-12 07:00:00,,0819.9,4.98,0.00,29.3,28.4,00.0,38.3,31.1,21.9,-000.0,0028.69,0009.27,0006.27
2022-05-12 07:01:00,,0819.9,5.00,0.00,29.3,28.4,00.0,38.3,31.1,22.0,0000.1,0027.75,0009.17,0006.24
2022-05-12 07:02:00,,0819.9,5.00,0.00,29.3,28.4,00.0,38.3,31.1,22.0,0000.3,0028.28,0009.16,0006.21
2022-05-12 07:03:00,,0819.9,5.00,0.00,29.3,28.4,00.0,38.3,31.1,22.1,0000.3,0028.10,0009.13,0006.19
2022-05-12 07:04:00,,0819.9,5.01,0.00,29.3,28.4,00.0,38.3,31.0,22.2,0000.5,0028.02,0009.07,0006.17
2022-05-12 07:05:00,,0819.9,5.00,0.00,29.2,28.4,00.0,38.3,31.0,22.3,0000.6,0026.85,0009.08,0006.15
2022-05-12 07:06:00,,0819.9,5.00,0.00,29.2,28.4,00.0,38.3,31.0,22.2,0000.7,0026.41,0009.06,0006.14
2022-05-12 07:07:00,,0819.9,5.00,0.00,29.2,28.4,00.0,38.3,31.0,22.3,0000.8,0025.83,0009.08,0006.14
2022-05-12 07:08:00,,0819.9,5.01,0.00,29.2,28.4,00.0,38.3,31.0,22.2,0000.8,0025.03,0009.17,0006.14
2022-05-12 07:09:00,,0819.9,5.00,0.00,29.2,28.4,00.0,38.3,31.0,22.2,0000.7,0025.39,0009.23,0006.14
2022-05-12 07:10:00,,0819.9,5.00,0.00,29.2,28.4,00.0,38.3,31.0,22.5,0001.1,0025.21,0009.16,0006.14
2022-05-12 07:11:00,,0819.9,5.01,0.00,29.2,28.4,00.0,38.3,31.0,22.7,0001.2,0025.54,0009.21,0006.15
2022-05-12 07:12:00,,0819.9,4.99,0.00,29.2,28.4,00.0,38.3,31.0,22.8,0001.1,0026.33,0009.33,0006.18
2022-05-12 07:13:00,,0820.0,5.00,0.00,29.2,28.4,00.0,38.3,31.0,22.7,0000.9,0025.96,0009.37,0006.22
2022-05-12 07:14:00,,0820.0,5.01,0.00,29.2,28.4,00.0,38.3,31.0,22.6,0001.4,0026.69,0009.39,0006.22
2022-05-12 07:15:00,,0819.9,5.01,0.00,29.2,28.4,00.0,38.2,31.0,22.8,0001.7,0026.92,0009.40,0006.24
2022-05-12 07:16:00,,0820.0,5.01,0.00,29.2,28.4,00.0,38.2,31.0,22.3,0001.6,0026.94,0009.36,0006.23
2022-05-12 07:17:00,,0819.9,5.01,0.00,29.2,28.4,00.0,38.2,31.0,22.8,0001.2,0026.00,0009.35,0006.23
2022-05-12 07:18:00,,0819.9,4.99,0.00,29.2,28.4,00.0,38.2,31.0,23.1,0000.8,0026.58,0009.38,0006.25
2022-05-12 07:19:00,,0819.9,4.99,0.00,29.2,28.4,00.0,38.2,31.0,23.5,0000.6,0026.58,0009.37,0006.26
2022-05-12 07:20:00,,0819.9,5.01,0.00,29.2,28.4,00.0,38.2,31.0,23.1,0001.0,0026.60,0009.35,0006.26
2022-05-12 07:21:00,,0819.9,5.00,0.00,29.2,28.4,00.0,38.2,31.0,23.2,0000.7,0026.17,0009.40,0006.28
2022-05-12 07:22:00,,0819.8,4.99,0.00,29.2,28.4,00.0,38.2,31.0,23.7,0000.8,0026.54,0009.44,0006.30
2022-05-12 07:23:00,,0819.8,5.00,0.00,29.2,28.4,00.0,38.2,31.0,24.0,0000.8,0026.69,0009.42,0006.31
2022-05-12 07:24:00,,0819.8,5.01,0.00,29.2,28.4,00.0,38.2,30.9,24.6,0000.8,0026.51,0009.40,0006.34
2022-05-12 07:25:00,,0819.8,5.00,0.00,29.1,28.3,00.0,38.2,30.9,24.7,0000.8,0026.77,0009.53,0006.39
2022-05-12 07:26:00,,0819.8,5.00,0.00,29.1,28.3,00.0,38.2,30.9,24.7,0000.4,0027.26,0009.69,0006.44
2022-05-12 07:27:00,,0819.8,4.99,0.00,29.1,28.3,00.0,38.2,30.9,24.4,0000.6,0028.36,0009.81,0006.49
2022-05-12 07:28:00,,0819.8,4.98,0.00,29.1,28.3,00.0,38.2,30.9,23.6,0000.5,0029.74,0009.80,0006.52
2022-05-12 07:29:00,,0819.8,5.00,0.00,29.1,28.3,00.0,38.2,30.9,22.9,0000.9,0029.44,0009.73,0006.52
2022-05-12 07:30:00,,0819.9,4.99,0.00,29.1,28.3,00.0,38.2,30.9,23.1,0001.1,0029.96,0009.78,0006.53
2022-05-12 07:31:00,,0819.8,5.01,0.00,29.1,28.3,00.0,38.2,30.9,23.1,0001.5,0029.64,0009.83,0006.54
2022-05-12 07:32:00,,0819.8,5.00,0.00,29.1,28.4,00.0,38.2,30.8,22.9,0001.8,0029.58,0009.82,0006.53
2022-05-12 07:33:00,,0819.8,5.00,0.00,29.1,28.4,00.0,38.1,30.9,22.9,0001.9,0028.72,0009.78,0006.52
2022-05-12 07:34:00,,0819.8,5.01,0.00,29.1,28.4,00.0,38.1,30.9,22.5,0001.8,0027.87,0009.77,0006.48
2022-05-12 07:35:00,,0819.8,5.00,0.00,29.1,28.4,00.0,38.1,31.0,22.5,0002.1,0027.39,0009.70,0006.41
2022-05-12 07:36:00,,0819.8,4.99,0.00,29.1,28.4,00.0,38.1,31.0,23.1,0001.5,0026.74,0009.60,0006.34
2022-05-12 07:37:00,,0819.8,5.00,0.00,29.1,28.4,00.0,38.1,31.0,23.0,0001.3,0026.66,0009.56,0006.30
2022-05-12 07:38:00,,0819.8,4.99,0.00,29.1,28.4,00.0,38.1,30.9,23.4,0001.0,0025.06,0009.57,0006.28
2022-05-12 07:39:00,,0819.8,5.00,0.00,29.1,28.4,00.0,38.1,30.9,23.2,0000.9,0024.34,0009.67,0006.29
2022-05-12 07:40:00,,0819.8,5.01,0.00,29.1,28.5,00.0,38.1,31.0,22.7,0000.8,0025.19,0009.72,0006.30
2022-05-12 07:41:00,,0819.7,5.00,0.00,29.2,28.5,00.0,38.2,31.0,23.0,0000.4,0024.66,0009.59,0006.29
2022-05-12 07:42:00,,0819.7,5.00,0.00,29.2,28.5,00.0,38.2,31.0,23.3,0000.1,0023.88,0009.47,0006.28
2022-05-12 07:43:00,,0819.7,4.99,0.00,29.2,28.5,00.0,38.2,31.0,23.3,-000.3,0022.86,0009.44,0006.29
2022-05-12 07:44:00,,0819.7,5.00,0.00,29.2,28.5,00.0,38.2,31.0,23.3,-000.5,0023.18,0009.43,0006.31
2022-05-12 07:45:00,,0819.7,5.00,0.00,29.2,28.5,00.0,38.2,31.0,23.3,-000.1,0024.11,0009.40,0006.33
2022-05-12 07:46:00,,0819.7,5.00,0.00,29.2,28.5,00.0,38.2,31.0,23.6,-000.3,0024.44,0009.43,0006.38
2022-05-12 07:47:00,,0819.7,5.00,0.00,29.2,28.5,00.0,38.2,31.0,23.8,0000.3,0024.86,0009.46,0006.42
2022-05-12 07:48:00,,0819.6,5.00,0.00,29.2,28.5,00.0,38.2,31.0,23.8,0000.9,0024.08,0009.38,0006.42
2022-05-12 07:49:00,,0819.5,5.01,0.00,29.2,28.5,00.0,38.2,31.1,24.3,0001.3,0024.91,0009.34,0006.42
2022-05-12 07:50:00,,0819.5,5.00,0.00,29.2,28.5,00.0,38.2,31.0,24.5,0001.3,0024.71,0009.28,0006.44
2022-05-12 07:51:00,,0819.5,5.00,0.00,29.3,28.6,00.0,38.2,31.1,24.3,0000.5,0023.99,0009.32,0006.46
2022-05-12 07:52:00,,0819.5,5.00,0.00,29.3,28.6,00.0,38.2,31.1,24.3,0000.1,0024.58,0009.44,0006.47
2022-05-12 07:53:00,,0819.5,5.00,0.00,29.3,28.6,00.0,38.2,31.1,24.4,-000.4,0024.77,0009.48,0006.52
2022-05-12 07:54:00,,0819.5,5.00,0.00,29.3,28.6,00.0,38.2,31.2,24.5,-000.4,0027.08,0009.54,0006.53
2022-05-12 07:55:00,,0819.5,5.00,0.00,29.3,28.6,00.0,38.2,31.2,24.6,-000.6,0027.65,0009.63,0006.56
2022-05-12 07:56:00,,0819.4,5.00,0.00,29.4,28.7,00.0,38.2,31.2,25.0,-000.9,0027.15,0009.69,0006.59
2022-05-12 07:57:00,,0819.4,5.00,0.00,29.4,28.7,00.0,38.3,31.2,25.0,-001.2,0027.96,0009.82,0006.64
2022-05-12 07:58:00,,0819.4,5.00,0.00,29.4,28.7,00.0,38.3,31.2,25.2,-001.4,0028.18,0009.84,0006.68
2022-05-12 07:59:00,,0819.4,5.00,0.00,29.4,28.7,00.0,38.3,31.2,25.3,-001.5,0028.38,0009.96,0006.74
